Miscellaneous Local Product
Issued by NWS North Platte, NE

Home | Current Version | Previous Version | Text Only | Print | Product List | Glossary On
Versions: 1 2 3 4 5 6 7 8 9 10 11 12 13 14 15 16 17 18 19 20 21 22 23 24 25 26 27 28 29 30 31 32 33 34 35 36 37 38 39 40 41 42 43 44 45 46 47 48 49 50
020
AXUS43 KLBF 240210
MISLBF


WESTERN AND NORTH CENTRAL NEBRASKA HOURLY WEATHER ROUNDUP
NATIONAL WEATHER SERVICE NORTH PLATTE NE
800 PM CST THU FEB 23 2017

NOTE: "FAIR" INDICATES FEW OR NO CLOUDS BELOW 12,000 FEET WITH NO
SIGNIFICANT WEATHER AND/OR OBSTRUCTIONS TO VISIBILITY.

NOTE: STATIONS NOT REPORTING VARIABLES SUCH AS SKY/WEATHER OR
PRESSURE ARE PROVIDED BY RAWS AND APRS NETWORKS AND ARE NOT UNDER
NATIONAL WEATHER SERVICE QUALITY CONTROL.

...OBSERVATIONS IN AND NEAR THE EASTERN PANHANDLE OF NEBRASKA...

CITY           SKY/WX    TMP DP  RH WIND       PRES   REMARKS
PINE RIDGE     LGT SNOW  25  23  92 NE16G25   29.89R VSB 1   WCI  12
CHADRON        LGT SNOW  25  22  88 N14G28    29.91R FOG     WCI  13
ALLIANCE       LGT SNOW  22  19  89 N17       29.83R VSB 3/4 WCI   8
SIDNEY         CLOUDY    21  18  88 N13       29.81R FOG     WCI   9
CRESCENT LAKE    N/A     22  21  96 NE14G23     N/A  WCI   9
$$

...OBSERVATIONS IN NORTHERN NEBRASKA AND FAR SOUTHERN SOUTH DAKOTA...

CITY           SKY/WX    TMP DP  RH WIND       PRES   REMARKS
WINNER         LGT SNOW  27  24  89 N21       29.91R FOG     WCI  13
VALENTINE      FOG       24  21  88 N17G31    29.86R VSB 3/4 WCI  11
THEDFORD       LGT SNOW  26  24  93 N20G25    29.80R VSB 3/4 WCI  12
AINSWORTH      CLOUDY    26  25  97 N28G36    29.81S WCI   9
O`NEILL        CLOUDY    28  28  96 N20G28    29.78R WCI  15
ORD            LGT SNOW  28  25  88 N12       29.72R VSB 1   WCI  18
BROKEN BOW     LGT SNOW  27  25  92 N18       29.73R FOG     WCI  14
VALENTINE NWR    N/A     24  23  94 N13G26      N/A  WCI  12
BUTTE            N/A     25  24  95 N22G30      N/A  WCI  10
HALSEY           N/A     25  23  93 N8G15       N/A  WCI  16
CHAMBERS         N/A     27  26  94 N12         N/A  WCI  17
EWING            N/A     28  27  96 NE10        N/A  WCI  19
$$

...OBSERVATIONS IN SOUTHWEST NEBRASKA AND FAR NORTHEAST COLORADO...

CITY           SKY/WX    TMP DP  RH WIND       PRES   REMARKS
HOLYOKE        LGT SNOW  27  23  86 N12       29.78R WCI  16
IMPERIAL       MOCLDY    24  21  88 N14       29.76R WCI  12
OGALLALA       LGT SNOW  26  23  88 N17       29.79R WCI  13
NORTH PLATTE   LGT SNOW  26  23  88 N10       29.77R FOG     WCI  16
MCCOOK         LGT SNOW  29  28  96 N16       29.73R FOG     WCI  17
LEXINGTON      FLURRIES  29  26  89 N9        29.73R WCI  21
STAPLETON        N/A     24  22  93 CALM        N/A
GOTHENBURG       N/A     28  26  94 NW9         N/A  WCI  19
CALLAWAY         N/A     25  24  95 N12         N/A  WCI  14
$$

...OBSERVATIONS IN CENTRAL LINCOLN COUNTY AREA...

CITY           SKY/WX    TMP DP  RH WIND       PRES   REMARKS
N.P. AIRPORT   LGT SNOW  26  23  88 N10       29.77R FOG     WCI  16
N.P. DOWNTOWN    N/A     25  23  93 N3          N/A
N.P. SOUTHEAST   N/A     25  23  92 N5G12       N/A  WCI  19
N.P. HILLCREST   N/A     25  24  93 N12G18      N/A  WCI  14
$$

...SOME OBSERVATIONS FROM AROUND THE REGION...

CITY           SKY/WX    TMP DP  RH WIND       PRES   REMARKS
LARAMIE        CLOUDY    12   5  73 E9        29.71R WCI   0
CHEYENNE       LGT SNOW  15  11  83 N14G23    29.77R FOG     WCI   0
DENVER         CLOUDY    19  14  81 N15G24    29.80R WCI   5
AKRON          FLURRIES  20  17  88 N16       29.76R WCI   6
SCOTTSBLUFF    LGT SNOW  23  20  88 NW8       29.87R VSB 1   WCI  14
RAPID CITY     FLURRIES  27  22  81 NE15      29.95R WCI  15
BISMARCK       CLEAR     23  16  74 N12       30.11R WCI  12
PIERRE         CLOUDY    28  20  71 NE20G26   29.95R WCI  15
SIOUX FALLS    LGT SNOW  28  27  96 NE22G29   29.84R VSB 3/4 WCI  14
OMAHA          LGT RAIN  37  33  85 N17G24    29.60F WCI  27
GRAND ISLAND   LGT SNOW  30  29  96 NE25G32   29.61F FOG     WCI  16
KANSAS CITY    CLEAR     48  44  86 NE16      29.41F
WICHITA        CLEAR     53  43  68 N29G38    29.36R
OKLAHOMA CITY  PTCLDY    69  43  38 S8        29.40R
DALLAS         PTCLDY    79  55  43 S21G29    29.48S
AMARILLO       CLEAR     55  11  17 W8        29.55R
DODGE CITY     CLOUDY    36  32  85 N30G37    29.59R WCI  23
HAYS           CLOUDY    36  32  85 N21       29.63R WCI  25
GOODLAND       MOCLDY    25  23  92 N24       29.70S WCI   9
$$




USA.gov is the U.S. government's official web portal to all federal, state and local government web resources and services.